Date String (YYYY-MM-DD hh:mm:ss) UTC,Instrument flags,Ambient pressure (hPa),Sample flow (lpm),Bypass flow (lpm),Sample temperature (°C),Ambient temperature (°C),ASC tube jacket temperature (°C),LED temperature (°C),Box temperature (°C),Sample RH (%),Span deviation,Mass concentration (μg/m³),Mass concentration (μg/m³),Mass concentration (μg/m³)
DateTimeUTC,F1_M11,P_M11,Q1_M11,Q2_M11,T1_M11,T2_M11,T3_M11,T4_M11,T5_M11,U1_M11,ZSPAN_M11,X0_M11,X2_M11,X1_M11
2022-09-28 10:00:00,,0832.8,5.00,0.00,30.6,29.0,00.0,39.3,32.4,16.1,0000.0,0004.29,0002.70,0002.37
2022-09-28 10:01:00,,0832.8,5.00,0.00,30.6,29.0,00.0,39.4,32.4,16.0,0000.0,0004.39,0002.74,0002.37
2022-09-28 10:02:00,,0832.7,5.00,0.00,30.6,29.0,00.0,39.3,32.4,16.0,0000.0,0004.47,0002.77,0002.36
2022-09-28 10:03:00,,0832.8,4.99,0.00,30.6,29.0,00.0,39.3,32.4,15.9,0000.0,0004.66,0002.79,0002.36
2022-09-28 10:04:00,,0832.8,5.02,0.00,30.6,29.0,00.0,39.4,32.4,16.0,0000.0,0004.68,0002.81,0002.37
2022-09-28 10:05:00,,0832.7,4.99,0.00,30.6,29.0,00.0,39.3,32.4,15.5,0000.0,0004.65,0002.81,0002.36
2022-09-28 10:06:00,,0832.7,5.01,0.00,30.6,29.0,00.0,39.3,32.4,15.6,0000.0,0004.55,0002.78,0002.35
2022-09-28 10:07:00,,0832.7,5.00,0.00,30.6,29.0,00.0,39.3,32.4,15.6,0000.0,0004.48,0002.79,0002.34
2022-09-28 10:08:00,,0832.7,5.01,0.00,30.6,29.0,00.0,39.4,32.4,15.5,0000.0,0004.10,0002.82,0002.35
2022-09-28 10:09:00,,0832.7,4.99,0.00,30.6,29.0,00.0,39.4,32.4,15.6,0000.0,0004.30,0002.88,0002.35
2022-09-28 10:10:00,,0832.7,5.01,0.00,30.6,29.0,00.0,39.3,32.4,15.7,0000.0,0004.31,0002.88,0002.35
2022-09-28 10:11:00,,0832.7,4.99,0.00,30.6,29.0,00.0,39.3,32.4,15.8,0000.0,0004.32,0002.88,0002.34
2022-09-28 10:12:00,,0832.7,5.00,0.00,30.6,29.0,00.0,39.3,32.4,15.8,0000.0,0004.12,0002.84,0002.33
2022-09-28 10:13:00,,0832.7,4.99,0.00,30.6,29.0,00.0,39.3,32.4,15.9,0000.0,0004.10,0002.84,0002.33
2022-09-28 10:14:00,,0832.7,5.00,0.00,30.6,29.0,00.0,39.4,32.4,16.0,0000.0,0004.04,0002.88,0002.34
2022-09-28 10:15:00,,0832.7,5.00,0.00,30.6,29.0,00.0,39.4,32.4,16.0,0000.0,0004.06,0002.89,0002.33
2022-09-28 10:16:00,,0832.7,5.02,0.00,30.6,29.0,00.0,39.4,32.4,16.0,0000.0,0004.10,0002.91,0002.34
2022-09-28 10:17:00,,0832.7,5.00,0.00,30.6,29.0,00.0,39.4,32.4,16.0,0000.0,0004.33,0002.91,0002.35
2022-09-28 10:18:00,,0832.7,4.99,0.00,30.6,29.0,00.0,39.4,32.4,15.9,0000.0,0005.56,0002.94,0002.36
2022-09-28 10:19:00,,0832.7,5.01,0.00,30.6,29.0,00.0,39.4,32.4,16.0,0000.0,0005.98,0002.92,0002.36
2022-09-28 10:20:00,,0832.7,4.99,0.00,30.6,29.0,00.0,39.4,32.4,16.0,0000.0,0006.12,0002.95,0002.37
2022-09-28 10:21:00,,0832.7,5.01,0.00,30.6,29.0,00.0,39.4,32.4,16.0,0000.0,0006.29,0003.02,0002.39
2022-09-28 10:22:00,,0832.7,5.01,0.00,30.6,29.0,00.0,39.4,32.4,16.0,0000.0,0006.35,0003.04,0002.40
2022-09-28 10:23:00,,0832.7,4.99,0.00,30.6,29.0,00.0,39.4,32.4,16.0,0000.0,0006.51,0003.07,0002.41
2022-09-28 10:24:00,,0832.7,5.00,0.00,30.6,29.0,00.0,39.4,32.4,16.0,0000.0,0006.66,0003.05,0002.41
2022-09-28 10:25:00,,0832.7,4.99,0.00,30.6,29.0,00.0,39.3,32.4,16.0,0000.0,0007.02,0003.02,0002.41
2022-09-28 10:26:00,,0832.7,5.00,0.00,30.6,29.0,00.0,39.4,32.3,16.0,0000.0,0006.98,0003.01,0002.41
2022-09-28 10:27:00,,0832.7,4.99,0.00,30.6,29.0,00.0,39.4,32.4,15.9,0000.0,0006.98,0003.00,0002.42
2022-09-28 10:28:00,,0832.7,5.01,0.00,30.6,29.0,00.0,39.4,32.4,15.9,0000.0,0006.93,0003.03,0002.43
2022-09-28 10:29:00,,0832.7,5.00,0.00,30.6,29.0,00.0,39.4,32.4,15.9,0000.0,0005.92,0003.05,0002.44
2022-09-28 10:30:00,,0832.7,4.99,0.00,30.6,29.0,00.0,39.4,32.4,15.9,0000.0,0005.43,0003.05,0002.46
2022-09-28 10:31:00,,0832.6,5.01,0.00,30.6,29.0,00.0,39.3,32.4,15.9,0000.0,0005.10,0003.05,0002.47
2022-09-28 10:32:00,,0832.6,4.99,0.00,30.6,29.0,00.0,39.3,32.4,16.0,0000.0,0004.76,0002.95,0002.48
2022-09-28 10:33:00,,0832.7,5.01,0.00,30.6,29.0,00.0,39.3,32.4,16.0,0000.0,0004.69,0002.92,0002.48
2022-09-28 10:34:00,,0832.7,5.00,0.00,30.6,29.0,00.0,39.3,32.4,16.0,0000.0,0004.82,0002.88,0002.47
2022-09-28 10:35:00,,0832.7,5.01,0.00,30.5,28.9,00.0,39.3,32.3,16.3,0000.0,0005.06,0002.90,0002.49
2022-09-28 10:36:00,,0832.7,4.99,0.00,30.5,28.8,00.0,39.3,32.3,16.5,0000.0,0004.86,0002.93,0002.51
2022-09-28 10:37:00,,0832.7,5.00,0.00,30.5,28.7,00.0,39.3,32.3,16.5,0000.0,0005.06,0002.93,0002.53
2022-09-28 10:38:00,,0832.7,5.01,0.00,30.5,28.7,00.0,39.3,32.3,16.5,0000.0,0005.02,0002.94,0002.54
2022-09-28 10:39:00,,0832.8,4.98,0.00,30.5,28.8,00.0,39.3,32.3,16.7,0000.0,0004.98,0002.94,0002.55
2022-09-28 10:40:00,,0832.8,5.02,0.00,30.5,28.8,00.0,39.3,32.3,17.0,0000.0,0005.35,0003.01,0002.58
2022-09-28 10:41:00,,0832.8,4.99,0.00,30.5,28.8,00.0,39.3,32.3,16.9,0000.0,0006.80,0003.06,0002.61
2022-09-28 10:42:00,,0832.7,5.00,0.00,30.5,28.7,00.0,39.3,32.3,16.7,0000.0,0007.49,0003.06,0002.62
2022-09-28 10:43:00,,0832.8,4.99,0.00,30.5,28.6,00.0,39.3,32.2,16.8,0000.0,0007.52,0003.08,0002.62
2022-09-28 10:44:00,,0832.7,5.01,0.00,30.4,28.6,00.0,39.3,32.2,16.8,0000.0,0007.61,0003.12,0002.62
2022-09-28 10:45:00,,0832.8,5.00,0.00,30.4,28.6,00.0,39.3,32.2,16.9,0000.0,0007.60,0003.15,0002.64
2022-09-28 10:46:00,,0832.8,4.99,0.00,30.4,28.5,00.0,39.3,32.2,17.0,0000.0,0007.50,0003.17,0002.65
2022-09-28 10:47:00,,0832.8,5.01,0.00,30.4,28.5,00.0,39.2,32.2,17.3,0000.0,0007.47,0003.19,0002.66
2022-09-28 10:48:00,,0832.9,4.99,0.00,30.4,28.5,00.0,39.2,32.1,17.8,0000.0,0007.44,0003.22,0002.69
2022-09-28 10:49:00,,0832.8,5.01,0.00,30.4,28.5,00.0,39.2,32.1,18.0,0000.0,0007.61,0003.28,0002.72
2022-09-28 10:50:00,,0832.8,4.99,0.00,30.4,28.4,00.0,39.2,32.1,17.9,0000.0,0007.70,0003.32,0002.75
2022-09-28 10:51:00,,0832.8,5.00,0.00,30.3,28.4,00.0,39.2,32.1,17.8,0000.0,0007.57,0003.32,0002.77
2022-09-28 10:52:00,,0832.9,5.00,0.00,30.3,28.5,00.0,39.2,32.1,17.8,0000.0,0006.85,0003.32,0002.78
2022-09-28 10:53:00,,0832.9,4.99,0.00,30.3,28.5,00.0,39.2,32.1,17.9,0000.0,0006.66,0003.34,0002.82
2022-09-28 10:54:00,,0832.8,5.00,0.00,30.3,28.5,00.0,39.2,32.1,18.0,0000.0,0008.47,0003.37,0002.86
2022-09-28 10:55:00,,0832.8,4.98,0.00,30.3,28.5,00.0,39.1,32.1,18.0,0000.0,0009.52,0003.41,0002.89
2022-09-28 10:56:00,,0832.8,5.01,0.00,30.3,28.6,00.0,39.1,32.1,18.1,0000.0,0009.86,0003.47,0002.93
2022-09-28 10:57:00,,0832.8,4.99,0.00,30.3,28.6,00.0,39.1,32.1,18.2,0000.0,0010.87,0003.50,0002.96
2022-09-28 10:58:00,,0832.8,5.01,0.00,30.3,28.7,00.0,39.1,32.1,18.3,0000.0,0010.87,0003.53,0003.00
2022-09-28 10:59:00,,0832.8,4.99,0.00,30.3,28.6,00.0,39.1,32.1,18.2,0000.0,0011.00,0003.56,0003.01
